Weather History for Evergreen, AL

Change the Weather History Date:

Thursday, March 15, 2012

  Actual Average (KPRN) Record (KPRN)
Temperature  
Mean Temperature 70 °F -  
Max Temperature 87 °F 72 °F 87 °F (1955)
Min Temperature 55 °F 45 °F 21 °F (1988)
Cooling Degree Days 6    
Growing Degree Days 20 (Base 50)    
Moisture  
Dew Point 58 °F    
Average Humidity 81    
Maximum Humidity 94    
Minimum Humidity 36    
Precipitation  
Precipitation 0.00 in - - ()
Sea Level Pressure  
Sea Level Pressure 30.24 in    
Wind  
Wind Speed 1 mph (WSW)    
Max Wind Speed 6 mph    
Max Gust Speed -    
Visibility 5 miles    
Events Fog    
Averages and records for this station are not official NWS values.
T = Trace of Precipitation, MM = Missing Value Source: NWS Daily Summary

Daily Weather History Graph

Daily Weather History Graph

Search for Another Location

Airport:

Trip Planner

Search our weather history database for the weather conditions in past years. The results will help you decide how hot, cold, wet, or windy it might be!

Date:

Astronomy

Mar. 15, 2012 Rise Set
Actual Time 6:57 AM CDT 6:56 PM CDT
Civil Twilight 6:33 AM CDT 7:20 PM CDT
Nautical Twilight 6:05 AM CDT 7:49 PM CDT
Astronomical Twilight 5:36 AM CDT 8:17 PM CDT
Moon 2:03 AM CDT (3/15) 12:34 PM CDT (3/15)
Length of Visible Light 12h 47m
Length of Day
11h 59m
Last Quarter, 43% of the Moon is Illuminated
Mar 15
Last Quarter
Mar 22
New
Mar 30
First Quarter
Apr 6
Full
Apr 13
Last Quarter

Hourly Weather History & Observations

Time (CDT) Temp. Heat Index Dew Point Humidity Pressure Visibility Wind Dir Wind Speed Gust Speed Precip Events Conditions
12:00 AM 64.4 °F - 62.6 °F 94% 30.25 in 3.0 mi Calm Calm - N/A   Mostly Cloudy
12:06 AM 64.4 °F - 60.8 °F 88% 30.25 in 1.8 mi Calm Calm - N/A   Mostly Cloudy
12:24 AM 62.6 °F - 60.8 °F 94% 30.25 in 1.2 mi WSW 3.5 mph - N/A   Scattered Clouds
12:28 AM 62.6 °F - 60.8 °F 94% 30.25 in 0.8 mi Calm Calm - N/A   Mist
12:33 AM 62.6 °F - 60.8 °F 94% 30.24 in 1.2 mi Calm Calm - N/A   Scattered Clouds
12:37 AM 62.6 °F - 60.8 °F 94% 30.24 in 3.0 mi Calm Calm - N/A   Partly Cloudy
12:53 AM 63.0 °F - 60.1 °F 90% 30.23 in 9.0 mi Calm Calm - N/A   Clear
1:32 AM 62.6 °F - 59.0 °F 88% 30.24 in 2.5 mi Calm Calm - N/A   Clear
1:37 AM 62.6 °F - 59.0 °F 88% 30.24 in 5.0 mi Calm Calm - N/A   Partly Cloudy
1:53 AM 62.1 °F - 59.0 °F 90% 30.23 in 2.0 mi Calm Calm - N/A   Scattered Clouds
1:55 AM 62.6 °F - 59.0 °F 88% 30.24 in 1.0 mi Calm Calm - N/A   Mist
2:03 AM 60.8 °F - 59.0 °F 94% 30.24 in 0.5 mi Calm Calm - N/A Fog Fog
2:53 AM 60.1 °F - 57.9 °F 93% 30.22 in 0.5 mi Calm Calm - N/A Fog Fog
3:03 AM 60.8 °F - 57.2 °F 88% 30.23 in 2.0 mi Calm Calm - N/A   Mostly Cloudy
3:10 AM 59.0 °F - 57.2 °F 94% 30.23 in 0.8 mi Calm Calm - N/A   Mist
3:31 AM 59.0 °F - 57.2 °F 94% 30.23 in 2.0 mi Calm Calm - N/A   Overcast
3:38 AM 59.0 °F - 55.4 °F 88% 30.23 in 0.8 mi Calm Calm - N/A   Mist
3:53 AM 57.9 °F - 55.9 °F 93% 30.22 in 0.8 mi Calm Calm - N/A   Mist
3:58 AM 57.2 °F - 55.4 °F 94% 30.23 in 2.5 mi Calm Calm - N/A   Overcast
4:19 AM 57.2 °F - 55.4 °F 94% 30.23 in 1.2 mi Calm Calm - N/A   Overcast
4:53 AM 57.9 °F - 55.9 °F 93% 30.23 in 0.2 mi Calm Calm - N/A Fog Fog
5:39 AM 57.2 °F - 55.4 °F 94% 30.25 in 2.0 mi NW 3.5 mph - N/A   Mostly Cloudy
5:41 AM 57.2 °F - 55.4 °F 94% 30.25 in 3.0 mi Calm Calm - N/A   Scattered Clouds
5:53 AM 57.0 °F - 55.0 °F 93% 30.25 in 4.0 mi Calm Calm - N/A   Partly Cloudy
6:28 AM 57.2 °F - 55.4 °F 94% 30.27 in 1.8 mi Calm Calm - N/A   Clear
6:36 AM 57.2 °F - 53.6 °F 88% 30.27 in 3.0 mi Calm Calm - N/A   Clear
6:53 AM 55.9 °F - 54.0 °F 93% 30.27 in 4.0 mi Calm Calm - N/A   Clear
6:57 AM 55.4 °F - 53.6 °F 94% 30.28 in 1.8 mi Calm Calm - N/A   Clear
7:07 AM 55.4 °F - 53.6 °F 94% 30.28 in 4.0 mi Calm Calm - N/A   Clear
7:53 AM 59.0 °F - 57.0 °F 93% 30.30 in 6.0 mi Calm Calm - N/A   Clear
8:53 AM 66.0 °F - 62.1 °F 87% 30.31 in 7.0 mi Calm Calm - N/A   Clear
9:53 AM 73.9 °F - 63.0 °F 68% 30.31 in 10.0 mi Variable 3.5 mph - N/A   Clear
10:53 AM 77.0 °F - 63.0 °F 62% 30.31 in 10.0 mi Variable 3.5 mph - N/A   Clear
11:53 AM 80.1 °F 81.2 °F 62.1 °F 54% 30.30 in 10.0 mi Calm Calm - N/A   Clear
12:53 PM 82.0 °F 82.1 °F 59.0 °F 45% 30.27 in 10.0 mi Calm Calm - 0.00 in   Clear
1:53 PM 84.0 °F 83.8 °F 59.0 °F 43% 30.23 in 10.0 mi Variable 5.8 mph - N/A   Clear
2:53 PM 84.0 °F 82.9 °F 55.0 °F 37% 30.21 in 10.0 mi Calm Calm - N/A   Clear
3:53 PM 84.9 °F 83.6 °F 55.0 °F 36% 30.19 in 10.0 mi Calm Calm - 0.00 in   Clear
4:53 PM 86.0 °F 84.7 °F 55.9 °F 36% 30.17 in 10.0 mi Variable 3.5 mph - N/A   Partly Cloudy
5:53 PM 84.9 °F 83.6 °F 55.0 °F 36% 30.17 in 10.0 mi NW 3.5 mph - N/A   Clear
6:53 PM 79.0 °F - 57.9 °F 48% 30.17 in 10.0 mi Calm Calm - N/A   Clear
7:53 PM 69.1 °F - 63.0 °F 81% 30.19 in 10.0 mi SSW 3.5 mph - N/A   Clear
8:53 PM 68.0 °F - 60.1 °F 76% 30.20 in 10.0 mi South 3.5 mph - N/A   Clear
9:53 PM 66.0 °F - 60.1 °F 81% 30.22 in 10.0 mi Calm Calm - N/A   Clear
10:53 PM 64.9 °F - 59.0 °F 81% 30.23 in 10.0 mi Calm Calm - N/A   Clear
11:53 PM 62.1 °F - 59.0 °F 90% 30.22 in 9.0 mi Calm Calm - N/A   Clear